EW8564 Weather Reports


time (UTC)temp
F
wind
direction
speed
knots
gust
knots
rain 1hr
in
rain 24hr
in
rain mn
in
humidity
%
barometer
mb
20260507233704 74 294 3.5 14.8 0.00 0.00 0.00 26 1003.4
20260507232703 74 283 2.6 12.2 0.00 0.00 0.00 27 1003.4
20260507231702 74 331 0.9 13.0 0.00 0.00 0.00 28 1003.4
20260507230702 74 329 1.7 15.6 0.00 0.00 0.00 28 1003.4
20260507225701 73 313 3.5 15.6 0.00 0.00 0.00 28 1003.4
20260507224700 72 321 0.9 13.9 0.00 0.00 0.00 29 1003.4
20260507223659 74 322 1.7 10.4 0.00 0.00 0.00 28 1003.4
20260507222657 73 313 0.9 10.4 0.00 0.00 0.00 27 1003.4
20260507221656 73 356 1.7 8.7 0.00 0.00 0.00 29 1003.7
20260507220654 73 327 1.7 13.0 0.00 0.00 0.00 29 1003.4
20260507215652 73 275 6.1 13.0 0.00 0.00 0.00 28 1003.7
20260507214651 73 251 2.6 11.3 0.00 0.00 0.00 29 1003.7
20260507213619 72 274 0.9 17.4 0.00 0.00 0.00 31 1004.1
20260507212618 73 308 2.6 17.4 0.00 0.00 0.00 31 1004.1
20260507211615 72 293 2.6 13.0 0.00 0.00 0.00 30 1004.1
20260507210615 72 315 2.6 14.8 0.00 0.00 0.00 30 1004.1
20260507205614 71 324 5.2 14.8 0.00 0.00 0.00 32 1004.4
20260507204613 71 314 1.7 13.9 0.00 0.00 0.00 33 1004.4
20260507203612 71 304 2.6 17.4 0.00 0.00 0.00 32 1004.4
20260507202612 71 315 1.7 13.9 0.00 0.00 0.00 35 1004.4
20260507201610 71 320 2.6 18.2 0.00 0.00 0.00 33 1004.4
20260507200609 70 342 3.5 18.2 0.00 0.00 0.00 36 1004.4
20260507195607 70 329 3.5 15.6 0.00 0.00 0.00 36 1004.7
20260507194536 70 307 7.0 14.8 0.00 0.00 0.00 35 1004.7
20260507193535 69 350 1.7 13.9 0.00 0.00 0.00 37 1004.7
20260507192534 69 309 3.5 13.9 0.00 0.00 0.00 36 1004.7
20260507191533 69 343 0.9 13.0 0.00 0.00 0.00 37 1005.1
20260507190501 68 305 3.5 13.9 0.00 0.00 0.00 38 1005.1
20260507185429 68 327 1.7 13.9 0.00 0.00 0.00 38 1005.1
20260507184428 68 332 0.9 11.3 0.00 0.00 0.00 39 1005.1
20260507183325 67 2 0.9 10.4 0.00 0.00 0.00 41 1005.1
20260507182252 67 310 0.9 12.2 0.00 0.00 0.00 41 1005.4
20260507181250 66 17 0.9 12.2 0.00 0.00 0.00 42 1005.4
20260507180248 67 309 0.0 3.5 0.00 0.00 0.00 42 1005.8
20260507175247 66 51 0.9 2.6 0.00 0.00 0.00 42 1005.8
20260507174246 65 327 0.9 7.8 0.00 0.00 0.00 42 1006.1
20260507173245 64 292 0.0 12.2 0.00 0.00 0.00 43 1006.1
20260507172244 64 304 0.0 12.2 0.00 0.00 0.00 43 1006.4
20260507171213 64 329 0.0 10.4 0.00 0.00 0.00 43 1006.4
20260507170139 64 325 1.7 10.4 0.00 0.00 0.00 43 1006.4
20260507165139 64 289 0.9 14.8 0.00 0.00 0.00 42 1006.4
20260507164138 64 320 0.9 14.8 0.00 0.00 0.00 43 1006.4
20260507163137 64 307 5.2 13.9 0.00 0.00 0.00 43 1006.4
20260507162136 63 283 0.9 13.9 0.00 0.00 0.00 43 1006.4
20260507161135 64 274 5.2 12.2 0.00 0.00 0.00 42 1006.4
20260507160136 63 304 0.9 15.6 0.00 0.00 0.00 42 1006.4
20260507155133 63 286 6.1 15.6 0.00 0.00 0.00 41 1006.4
20260507154131 63 313 4.3 14.8 0.00 0.00 0.00 43 1006.8
20260507153130 63 312 1.7 12.2 0.00 0.00 0.00 43 1006.8
20260507152129 62 314 2.6 12.2 0.00 0.00 0.00 43 1006.8
20260507151128 62 350 0.0 7.8 0.00 0.00 0.00 46 1006.8
20260507150056 62 338 0.9 7.0 0.00 0.00 0.00 46 1006.8
20260507145055 61 321 0.9 7.0 0.00 0.00 0.00 48 1006.8
20260507144054 60 318 0.9 14.8 0.00 0.00 0.00 55 1006.8
20260507143052 57 330 0.0 14.8 0.00 0.00 0.00 66 1006.4
20260507142052 53 18 0.0 12.2 0.00 0.00 0.00 82 1006.4
20260507141050 50 33 0.0 0.0 0.00 0.00 0.00 85 1006.4
20260507140017 49 106 0.0 0.0 0.00 0.00 0.00 85 1006.4
20260507135016 48 106 0.0 0.0 0.00 0.00 0.00 84 1006.4
20260507133944 48 99 0.0 0.0 0.00 0.00 0.00 85 1006.4
20260507132911 47 101 0.0 0.0 0.00 0.00 0.00 85 1006.4
20260507131910 47 101 0.0 0.0 0.00 0.00 0.00 84 1006.4
20260507130909 47 101 0.0 0.0 0.00 0.00 0.00 84 1006.1
20260507125908 47 101 0.0 0.0 0.00 0.00 0.00 84 1006.1
20260507124907 47 38 0.0 0.0 0.00 0.00 0.00 84 1006.1
20260507123907 46 11 0.0 0.0 0.00 0.00 0.00 84 1006.1
20260507122906 46 11 0.0 0.0 0.00 0.00 0.00 84 1006.1
20260507121832 46 11 0.0 0.0 0.00 0.00 0.00 83 1006.1
20260507120832 46 11 0.0 0.0 0.00 0.00 0.00 82 1006.1
20260507115830 46 11 0.0 0.0 0.00 0.00 0.00 82 1006.1
20260507114829 46 11 0.0 0.0 0.00 0.00 0.00 82 1006.1
20260507113827 46 11 0.0 0.0 0.00 0.00 0.00 81 1005.8
20260507112827 46 11 0.0 0.0 0.00 0.00 0.00 81 1005.8
20260507111825 47 10 0.0 0.0 0.00 0.00 0.00 81 1005.8
20260507110753 47 10 0.0 0.0 0.00 0.00 0.00 80 1005.4
20260507105752 48 10 0.0 0.0 0.00 0.00 0.00 79 1005.4
20260507104751 48 10 0.0 0.0 0.00 0.00 0.00 79 1005.4
20260507103750 49 10 0.0 0.0 0.00 0.00 0.00 79 1005.4
20260507102749 49 10 0.0 0.0 0.00 0.00 0.00 78 1005.1
20260507101749 49 10 0.0 0.0 0.00 0.00 0.00 77 1005.1
20260507100748 50 35 0.0 0.0 0.00 0.00 0.00 78 1005.1
20260507095747 50 35 0.0 0.0 0.00 0.00 0.00 76 1005.1
20260507094746 51 35 0.0 0.0 0.00 0.00 0.00 75 1005.1
20260507093745 52 35 0.0 0.0 0.00 0.00 0.00 73 1004.7
20260507092744 52 35 0.0 0.0 0.00 0.00 0.00 73 1005.1
20260507091712 52 35 0.0 0.0 0.00 0.00 0.00 72 1005.1
20260507090711 52 35 0.0 0.0 0.00 0.00 0.00 71 1005.1
20260507085709 53 35 0.0 0.0 0.00 0.00 0.00 70 1004.7
20260507084707 53 35 0.0 0.0 0.00 0.00 0.00 68 1004.7
20260507083706 54 35 0.0 0.0 0.00 0.00 0.00 67 1005.1
20260507082704 55 35 0.0 0.0 0.00 0.00 0.00 66 1005.1
20260507081704 56 35 0.0 0.0 0.00 0.00 0.00 64 1005.1
20260507080703 56 35 0.0 0.0 0.00 0.00 0.00 64 1004.7
20260507075702 57 35 0.0 0.0 0.00 0.00 0.00 62 1004.7
20260507074700 57 35 0.0 0.0 0.00 0.00 0.00 61 1004.7
20260507073659 58 35 0.0 0.0 0.00 0.00 0.00 60 1004.7
20260507072658 59 35 0.0 0.0 0.00 0.00 0.00 58 1004.4
20260507071658 60 35 0.0 0.0 0.00 0.00 0.00 56 1004.7
20260507070626 60 34 0.0 0.0 0.00 0.00 0.00 54 1004.7
20260507065626 61 34 0.0 0.0 0.00 0.00 0.00 53 1004.7
20260507064624 62 34 0.0 0.0 0.00 0.00 0.00 51 1004.7
20260507063623 63 14 0.0 0.0 0.00 0.00 0.00 47 1004.7
20260507062623 64 3 0.0 0.9 0.00 0.00 0.00 45 1004.7
20260507061551 65 358 0.0 13.9 0.00 0.00 0.00 43 1004.7
20260507060551 64 289 0.9 13.9 0.00 0.00 0.00 43 1004.7
20260507055550 63 288 0.0 13.0 0.00 0.00 0.00 45 1004.7
20260507054518 62 302 3.5 13.0 0.00 0.00 0.00 45 1004.7
20260507053516 62 350 0.0 0.9 0.00 0.00 0.00 46 1004.7
20260507052515 61 323 0.0 0.9 0.00 0.00 0.00 47 1004.7
20260507051512 60 239 0.0 0.9 0.00 0.00 0.00 50 1004.4
20260507050511 61 268 0.0 13.0 0.00 0.00 0.00 54 1004.4
20260507045511 64 264 0.0 13.0 0.00 0.00 0.00 43 1004.4
20260507044510 59 238 0.0 0.9 0.00 0.00 0.00 58 1004.7
20260507043509 58 118 0.0 0.9 0.00 0.00 0.00 63 1004.7
20260507042508 58 335 0.0 0.0 0.00 0.00 0.00 64 1004.7
20260507041507 58 83 0.0 0.9 0.00 0.00 0.00 63 1004.7
20260507040506 58 127 0.0 0.9 0.00 0.00 0.00 63 1004.7
20260507035403 59 274 0.0 7.8 0.00 0.00 0.00 61 1004.7
20260507034401 59 274 0.0 7.8 0.00 0.00 0.00 61 1004.7
20260507033400 59 138 0.0 0.0 0.00 0.00 0.00 61 1004.7
20260507032359 60 138 0.0 0.0 0.00 0.00 0.00 60 1004.4
20260507031358 61 138 0.0 0.0 0.00 0.00 0.00 59 1004.4
20260507030356 61 139 0.0 0.0 0.00 0.00 0.00 59 1004.4
20260507025355 62 139 0.0 0.0 0.00 0.00 0.00 56 1004.4
20260507024322 62 139 0.0 0.0 0.00 0.00 0.00 55 1004.4
20260507023320 63 139 0.0 0.0 0.00 0.00 0.00 55 1004.4
20260507022319 64 139 0.0 0.0 0.00 0.00 0.00 53 1004.4
20260507021318 64 139 0.0 0.0 0.00 0.00 0.00 53 1004.4
20260507020317 65 139 0.0 0.0 0.00 0.00 0.00 51 1004.4
20260507015317 66 216 0.0 0.9 0.00 0.00 0.00 50 1004.4
20260507014316 67 240 0.0 0.9 0.00 0.00 0.00 45 1004.7
20260507013314 67 221 0.0 0.9 0.00 0.00 0.00 41 1004.7
20260507012313 66 180 0.0 6.1 0.00 0.00 0.00 42 1004.7
20260507011312 66 352 0.9 6.1 0.00 0.00 0.00 44 1005.1
20260507010311 68 121 0.0 0.9 0.00 0.00 0.00 50 1004.4
20260507005310 69 169 0.0 0.9 0.00 0.00 0.00 45 1004.7
20260507004310 69 72 0.0 0.9 0.00 0.00 0.00 45 1004.4
20260507003308 70 170 0.0 0.9 0.00 0.00 0.00 43 1004.7
20260507002237 70 137 0.0 0.9 0.00 0.00 0.00 41 1004.7
20260507001204 71 103 0.0 0.9 0.00 0.00 0.00 39 1004.7
20260507000204 70 98 0.0 0.9 0.00 0.00 0.00 39 1005.1
20260506235058 70 327 0.0 15.6 0.00 0.00 0.00 40 1004.7